Weather History for Brunswick, GA

Change the Weather History Date:

Wednesday, June 19, 2013

  Actual Average Record
Temperature  
Mean Temperature 86 °F -  
Max Temperature 95 °F 89 °F 100 °F (1940)
Min Temperature 77 °F 71 °F 62 °F (1961)
Cooling Degree Days 21    
Growing Degree Days 36 (Base 50)    
Moisture  
Dew Point 75 °F    
Average Humidity 77    
Maximum Humidity 100    
Minimum Humidity 49    
Precipitation  
Precipitation 0.00 in - - ()
Sea Level Pressure  
Sea Level Pressure 29.99 in    
Wind  
Wind Speed 8 mph (WSW)    
Max Wind Speed 14 mph    
Max Gust Speed 18 mph    
Visibility 10 miles    
Events Thunderstorm    
Averages and records for this station are not official NWS values.
T = Trace of Precipitation, MM = Missing Value Source: NWS Daily Summary

Daily Weather History Graph

Daily Weather History Graph

Search for Another Location

Airport:

Trip Planner

Search our weather history database for the weather conditions in past years. The results will help you decide how hot, cold, wet, or windy it might be!

Date:

Astronomy

Jun. 19, 2013 Rise Set
Actual Time 6:21 AM EDT 8:32 PM EDT
Civil Twilight 5:53 AM EDT 9:00 PM EDT
Nautical Twilight 5:19 AM EDT 9:34 PM EDT
Astronomical Twilight 4:42 AM EDT 10:11 PM EDT
Moon 4:33 PM EDT (6/19) 2:53 AM EDT (6/19)
Length of Visible Light 15h 06m
Length of Day
14h 10m
Waxing Gibbous, 80% of the Moon is Illuminated
Jun 19
Waxing Gibbous
Jun 23
Full
Jun 30
Last Quarter
Jul 8
New
Jul 15
First Quarter

Hourly Weather History & Observations

Time (EDT) Temp. Heat Index Dew Point Humidity Pressure Visibility Wind Dir Wind Speed Gust Speed Precip Events Conditions
12:15 AM 82.4 °F 87.2 °F 71.6 °F 70% 29.97 in 10.0 mi SW 6.9 mph - N/A   Scattered Clouds
12:35 AM 82.4 °F 88.2 °F 73.4 °F 74% 29.97 in 10.0 mi SW 11.5 mph - N/A   Clear
12:55 AM 82.4 °F 88.2 °F 73.4 °F 74% 29.97 in 10.0 mi SW 10.4 mph - N/A   Clear
1:15 AM 82.4 °F 88.2 °F 73.4 °F 74% 29.96 in 10.0 mi SW 10.4 mph - N/A   Clear
1:35 AM 82.4 °F 88.2 °F 73.4 °F 74% 29.96 in 10.0 mi SW 11.5 mph - N/A   Clear
1:55 AM 82.4 °F 88.2 °F 73.4 °F 74% 29.95 in 10.0 mi SW 11.5 mph - N/A   Clear
2:15 AM 80.6 °F 85.4 °F 73.4 °F 79% 29.95 in 10.0 mi SW 10.4 mph - N/A   Clear
2:35 AM 80.6 °F 86.2 °F 75.2 °F 84% 29.95 in 10.0 mi WSW 9.2 mph 16.1 mph N/A   Clear
2:55 AM 80.6 °F 86.2 °F 75.2 °F 84% 29.95 in 10.0 mi SW 8.1 mph - N/A   Clear
3:15 AM 80.6 °F 86.2 °F 75.2 °F 84% 29.95 in 10.0 mi WSW 9.2 mph - N/A   Clear
3:35 AM 80.6 °F 86.2 °F 75.2 °F 84% 29.96 in 10.0 mi SW 9.2 mph - N/A   Clear
3:55 AM 80.6 °F 86.2 °F 75.2 °F 84% 29.97 in 10.0 mi WSW 10.4 mph - N/A   Clear
4:15 AM 80.6 °F 86.2 °F 75.2 °F 84% 29.97 in 10.0 mi SW 9.2 mph - N/A   Clear
4:35 AM 80.6 °F 87.1 °F 77.0 °F 89% 29.97 in 10.0 mi SW 8.1 mph - N/A   Clear
4:55 AM 78.8 °F - 75.2 °F 89% 29.97 in 10.0 mi WSW 10.4 mph - N/A   Clear
5:15 AM 78.8 °F - 75.2 °F 89% 29.98 in 10.0 mi SW 9.2 mph - N/A   Clear
5:35 AM 78.8 °F - 75.2 °F 89% 29.98 in 10.0 mi SW 8.1 mph - N/A   Clear
5:55 AM 78.8 °F - 75.2 °F 89% 29.98 in 10.0 mi SW 9.2 mph - N/A   Clear
6:15 AM 78.8 °F - 75.2 °F 89% 29.98 in 10.0 mi SW 8.1 mph - N/A   Clear
6:35 AM 78.8 °F - 77.0 °F 94% 29.99 in 10.0 mi SW 5.8 mph - N/A   Clear
6:55 AM 78.8 °F - 77.0 °F 94% 29.99 in 10.0 mi SW 6.9 mph - N/A   Clear
7:15 AM 80.6 °F 87.1 °F 77.0 °F 89% 29.99 in 10.0 mi SW 6.9 mph - N/A   Clear
7:35 AM 80.6 °F 87.1 °F 77.0 °F 89% 30.00 in 10.0 mi SW 9.2 mph - N/A   Clear
7:55 AM 80.6 °F 87.1 °F 77.0 °F 89% 30.00 in 10.0 mi SW 10.4 mph - N/A   Clear
8:15 AM 82.4 °F 90.9 °F 77.0 °F 84% 30.00 in 10.0 mi WSW 10.4 mph - N/A   Clear
8:35 AM 84.2 °F 94.1 °F 77.0 °F 79% 30.00 in 10.0 mi WSW 9.2 mph - N/A   Clear
8:55 AM 86.0 °F 96.9 °F 77.0 °F 74% 30.01 in 10.0 mi West 9.2 mph 16.1 mph N/A   Clear
9:15 AM 86.0 °F 96.9 °F 77.0 °F 74% 30.01 in 10.0 mi WSW 11.5 mph - N/A   Clear
9:35 AM 86.0 °F 95.1 °F 75.2 °F 70% 30.01 in 10.0 mi WSW 11.5 mph - N/A   Clear
9:55 AM 86.0 °F 95.1 °F 75.2 °F 70% 30.01 in 10.0 mi WSW 11.5 mph - N/A   Clear
10:15 AM 86.0 °F 96.9 °F 77.0 °F 74% 30.01 in 10.0 mi West 13.8 mph 18.4 mph N/A   Clear
10:35 AM 86.0 °F 96.9 °F 77.0 °F 74% 30.01 in 10.0 mi West 10.4 mph 17.3 mph N/A   Scattered Clouds
10:55 AM 87.8 °F 97.6 °F 75.2 °F 66% 30.02 in 10.0 mi WSW 12.7 mph 18.4 mph N/A   Scattered Clouds
11:15 AM 89.6 °F 102.2 °F 77.0 °F 66% 30.02 in 10.0 mi West 12.7 mph 17.3 mph N/A   Scattered Clouds
11:35 AM 89.6 °F 99.8 °F 75.2 °F 62% 30.02 in 10.0 mi WSW 11.5 mph 18.4 mph N/A   Scattered Clouds
11:55 AM 91.4 °F 100.1 °F 73.4 °F 55% 30.02 in 10.0 mi WSW 12.7 mph 18.4 mph N/A   Scattered Clouds
12:15 PM 89.6 °F 98.2 °F 73.4 °F 59% 30.01 in 10.0 mi WSW 10.4 mph - N/A   Scattered Clouds
12:35 PM 89.6 °F 102.2 °F 77.0 °F 66% 30.02 in 10.0 mi NW 5.8 mph - N/A   Mostly Cloudy
12:55 PM 89.6 °F 102.2 °F 77.0 °F 66% 30.01 in 10.0 mi West 9.2 mph - N/A   Overcast
1:15 PM 91.4 °F 102.5 °F 75.2 °F 59% 30.00 in 10.0 mi West 5.8 mph 17.3 mph N/A   Scattered Clouds
1:35 PM 93.2 °F 102.4 °F 73.4 °F 52% 30.00 in 10.0 mi West 11.5 mph 17.3 mph N/A   Scattered Clouds
1:55 PM 95.0 °F 104.5 °F 73.4 °F 49% 29.99 in 10.0 mi West 12.7 mph - N/A   Scattered Clouds
2:15 PM 89.6 °F 98.2 °F 73.4 °F 59% 29.98 in 10.0 mi West 8.1 mph - N/A   Mostly Cloudy
2:35 PM 89.6 °F 99.8 °F 75.2 °F 62% 29.98 in 10.0 mi WSW 9.2 mph - N/A   Scattered Clouds
2:55 PM 91.4 °F 102.5 °F 75.2 °F 59% 29.98 in 10.0 mi West 5.8 mph - N/A   Scattered Clouds
3:15 PM 93.2 °F 102.4 °F 73.4 °F 52% 29.97 in 10.0 mi WSW 4.6 mph - N/A   Scattered Clouds
3:35 PM 91.4 °F 100.1 °F 73.4 °F 55% 29.97 in 10.0 mi West 3.5 mph - N/A   Mostly Cloudy
3:55 PM 91.4 °F 100.1 °F 73.4 °F 55% 29.97 in 10.0 mi SSW 8.1 mph - N/A   Scattered Clouds
4:15 PM 91.4 °F 100.1 °F 73.4 °F 55% 29.96 in 10.0 mi WSW 3.5 mph - N/A   Scattered Clouds
4:35 PM 93.2 °F 102.4 °F 73.4 °F 52% 29.95 in 10.0 mi SSW 3.5 mph - N/A   Mostly Cloudy
4:55 PM 93.2 °F 102.4 °F 73.4 °F 52% 29.95 in 10.0 mi SSW 5.8 mph - N/A   Mostly Cloudy
5:15 PM 91.4 °F 100.1 °F 73.4 °F 55% 29.94 in 10.0 mi Calm Calm - N/A   Mostly Cloudy
5:35 PM 93.2 °F 102.4 °F 73.4 °F 52% 29.94 in 10.0 mi West 3.5 mph - N/A   Mostly Cloudy
5:55 PM 91.4 °F 100.1 °F 73.4 °F 55% 29.95 in 10.0 mi Calm Calm - N/A Thunderstorm Mostly Cloudy
6:15 PM 87.8 °F 102.5 °F 78.8 °F 75% 29.97 in 10.0 mi SSE 6.9 mph - N/A Thunderstorm Thunderstorm
6:35 PM 80.6 °F 86.2 °F 75.2 °F 84% 29.97 in 7.0 mi South 6.9 mph - N/A Thunderstorm Thunderstorm
6:55 PM 80.6 °F 87.1 °F 77.0 °F 89% 29.99 in 10.0 mi SSW 6.9 mph - N/A Thunderstorm Overcast
7:15 PM 80.6 °F 87.1 °F 77.0 °F 89% 29.99 in 10.0 mi South 3.5 mph - N/A Thunderstorm Thunderstorm
7:35 PM 80.6 °F 87.1 °F 77.0 °F 89% 29.99 in 10.0 mi Calm Calm - N/A Thunderstorm Scattered Clouds
7:55 PM 80.6 °F 87.1 °F 77.0 °F 89% 30.00 in 10.0 mi South 6.9 mph - N/A   Scattered Clouds
8:15 PM 78.8 °F - 77.0 °F 94% 30.00 in 10.0 mi Calm Calm - N/A   Clear
8:35 PM 78.8 °F - 77.0 °F 94% 30.00 in 10.0 mi Calm Calm - N/A Thunderstorm Clear
8:55 PM 78.8 °F - 77.0 °F 94% 30.01 in 10.0 mi Calm Calm - N/A Thunderstorm Scattered Clouds
9:15 PM 78.8 °F - 77.0 °F 94% 30.03 in 10.0 mi Calm Calm - N/A Thunderstorm Mostly Cloudy
9:35 PM 78.8 °F - 77.0 °F 94% 30.03 in 10.0 mi NNE 3.5 mph - N/A   Scattered Clouds
9:55 PM 77.0 °F - 77.0 °F 100% 30.04 in 10.0 mi Calm Calm - N/A   Scattered Clouds
10:15 PM 77.0 °F - 75.2 °F 94% 30.05 in 10.0 mi Calm Calm - N/A   Clear
10:35 PM 78.8 °F - 77.0 °F 94% 30.06 in 10.0 mi South 4.6 mph - N/A   Scattered Clouds
10:55 PM 78.8 °F - 77.0 °F 94% 30.05 in 10.0 mi Calm Calm - N/A   Scattered Clouds
11:15 PM 77.0 °F - 75.2 °F 94% 30.03 in 7.0 mi Calm Calm - N/A   Clear
11:35 PM 77.0 °F - 75.2 °F 94% 30.05 in 10.0 mi Calm Calm - N/A   Clear
11:55 PM 77.0 °F - 75.2 °F 94% 30.06 in 7.0 mi Calm Calm - N/A   Clear